Weather in Bulashovo

Russia / Tyumen Oblast     57°46′28″N   67°50′58″E
temp.,
°C
wind,
m/s
gust,
m/s
humid.,
%
clouds,
%
prec.,
mm/h
press.,
hPa
HPBL,
m
18 april, sun
sun1823:00+3wnw2270100 0.0 101626
02:00+3sw3771100 0.0 1013138
05:00+4wsw51367100 0.0 1010509
08:00+5wnw7137180 0.0 10081271
11:00−1n9136096 0.3 10141341
14:00−1nne8123724 0.1 10211669
17:00−1n711355 0.1 10251736
20:00−5n694771 0.0 10281545
19 april, mon
mon1923:00−6nne49495 0.0 10301363
02:00−7nne485025 0.0 10321281
05:00−7n375120 0.0 10331287
08:00−6n4642100 0.0 10341626
11:00−3nnw4636100 0.0 10341991
14:00−1n5628100 0.0 10332270
17:00−1n5629100 0.0 10332153
20:00−4nne25445 0.0 1034101
20 april, tue
tue2023:00−5ne11510 0.0 103415
02:00−5sw22505 0.0 103447
05:00−5wsw375214 0.0 1033238
08:00−1wsw583638 0.0 1031595
11:00+4w6103297 0.0 10281447
14:00+7w7103373 0.0 10251773
17:00+8wnw6114264 0.0 10231792
20:00+4wnw4115990 0.0 1023242
21 april, wed
wed2123:00+2nw4117489 0.0 1024283
02:00+1nnw39895 0.0 1025211
05:00−1nnw39945 0.0 1027261
08:00+1n58685 0.0 1029693
11:00+4n46475 0.0 10311085
14:00+7nne45385 0.0 10321439
17:00+7nne44375 0.0 10331472
20:00+4ene22550 0.0 103529
22 april, thu
thu2223:00+2ese24680 0.0 103663
02:000se24750 0.0 103777
05:00−1sse24762 0.0 103988
08:00+4s35560 0.0 1040433
11:00+8s44425 0.0 10401180
14:00+10s443592 0.0 10391641
17:00+10s453595 0.0 10381586
20:00+6sse39535 0.0 1039188